• In Kazakhstan
  • List of Countries
  • For 7 days
  • Water Temperature
  • Satellite Maps
  • Weather Map
  • News
  • Weather Widgets
  • user-avatar
    Login

    Hourly Weather Mauritius

    Today, 27 March, Wednesday

    Time Temperature Precipitation Wind Pressure Humidity
    00:00 +26°C° 0 mm 2 mps 721 mmHg 85%
    01:00 +26°C° 0 mm 2 mps 721 mmHg 85%
    02:00 +26°C° 0 mm 2 mps 721 mmHg 85%
    03:00 +26°C° 0 mm 2 mps 721 mmHg 85%
    04:00 +26°C° 0 mm 3 mps 721 mmHg 86%
    05:00 +26°C° 0 mm 3 mps 721 mmHg 85%
    06:00 +26°C° 0 mm 3 mps 721 mmHg 85%
    07:00 +26°C° 0 mm 3 mps 721 mmHg 85%
    08:00 +27°C° 0 mm 4 mps 721 mmHg 81%
    09:00 +28°C° 0 mm 4 mps 722 mmHg 77%
    10:00 +29°C° 0 mm 4 mps 722 mmHg 72%
    11:00 +29°C° 0 mm 4 mps 722 mmHg 70%
    12:00 +30°C° 0 mm 4 mps 722 mmHg 68%
    13:00 +30°C° 0 mm 4 mps 721 mmHg 66%
    14:00 +30°C° 0.1 mm 5 mps 721 mmHg 67%
    15:00 +30°C° 0.1 mm 5 mps 721 mmHg 69%
    16:00 +29°C° 0.1 mm 5 mps 721 mmHg 70%
    17:00 +28°C° 0 mm 5 mps 721 mmHg 74%
    18:00 +28°C° 0 mm 5 mps 721 mmHg 78%
    19:00 +27°C° 0 mm 5 mps 721 mmHg 82%
    20:00 +27°C° 0 mm 5 mps 721 mmHg 83%
    21:00 +27°C° 0 mm 5 mps 722 mmHg 83%
    22:00 +27°C° 0 mm 5 mps 722 mmHg 84%
    23:00 +27°C° 0 mm 5 mps 722 mmHg 84%

    Tomorrow, 28 March, Thursday

    Time Temperature Precipitation Wind Pressure Humidity
    00:00 +27°C° 0 mm 5 mps 721 mmHg 84%
    01:00 +26°C° 0 mm 4 mps 721 mmHg 85%
    02:00 +26°C° 0 mm 4 mps 721 mmHg 85%
    03:00 +26°C° 0 mm 5 mps 721 mmHg 86%
    04:00 +26°C° 0 mm 5 mps 720 mmHg 86%
    05:00 +26°C° 0 mm 5 mps 720 mmHg 86%
    06:00 +26°C° 0 mm 5 mps 720 mmHg 85%
    07:00 +26°C° 0 mm 5 mps 721 mmHg 85%
    08:00 +27°C° 0.1 mm 5 mps 721 mmHg 81%
    09:00 +28°C° 0.1 mm 5 mps 721 mmHg 77%
    10:00 +29°C° 0.1 mm 6 mps 722 mmHg 73%
    11:00 +29°C° 0.2 mm 6 mps 721 mmHg 72%
    12:00 +30°C° 0.2 mm 6 mps 721 mmHg 70%
    13:00 +30°C° 0.2 mm 6 mps 721 mmHg 69%
    14:00 +30°C° 0.1 mm 6 mps 720 mmHg 70%
    15:00 +29°C° 0.1 mm 6 mps 720 mmHg 71%
    16:00 +29°C° 0.1 mm 6 mps 719 mmHg 72%
    17:00 +28°C° 0.1 mm 6 mps 719 mmHg 75%
    18:00 +28°C° 0.1 mm 6 mps 719 mmHg 78%
    19:00 +27°C° 0.1 mm 6 mps 719 mmHg 81%
    20:00 +27°C° 0.1 mm 6 mps 720 mmHg 82%
    21:00 +27°C° 0.1 mm 6 mps 720 mmHg 82%
    22:00 +27°C° 0.1 mm 5 mps 721 mmHg 82%
    23:00 +27°C° 0.1 mm 5 mps 721 mmHg 82%

    Day after tomorrow, 29 March, Friday

    Time Temperature Precipitation Wind Pressure Humidity
    00:00 +26°C° 0.1 mm 5 mps 720 mmHg 83%
    01:00 +26°C° 0.1 mm 5 mps 720 mmHg 84%
    02:00 +26°C° 0.1 mm 5 mps 720 mmHg 84%
    03:00 +26°C° 0.1 mm 5 mps 719 mmHg 84%
    04:00 +26°C° 0.1 mm 5 mps 719 mmHg 85%
    05:00 +26°C° 0 mm 5 mps 719 mmHg 85%
    06:00 +26°C° 0 mm 5 mps 719 mmHg 85%
    07:00 +26°C° 0 mm 5 mps 719 mmHg 85%
    08:00 +27°C° 0 mm 5 mps 720 mmHg 81%
    09:00 +28°C° 0 mm 5 mps 720 mmHg 77%
    10:00 +29°C° 0 mm 5 mps 720 mmHg 73%
    11:00 +29°C° 0.2 mm 5 mps 720 mmHg 72%
    12:00 +29°C° 0.2 mm 5 mps 720 mmHg 70%
    13:00 +30°C° 0.2 mm 5 mps 719 mmHg 69%
    14:00 +29°C° 0.8 mm 5 mps 719 mmHg 71%
    15:00 +29°C° 0.8 mm 5 mps 719 mmHg 73%
    16:00 +28°C° 0.8 mm 5 mps 718 mmHg 75%
    17:00 +28°C° 0.4 mm 5 mps 719 mmHg 77%
    18:00 +27°C° 0.4 mm 4 mps 719 mmHg 80%
    19:00 +26°C° 0.4 mm 4 mps 719 mmHg 83%
    20:00 +26°C° 0.1 mm 4 mps 720 mmHg 83%
    21:00 +26°C° 0.1 mm 4 mps 720 mmHg 83%
    22:00 +26°C° 0.1 mm 5 mps 720 mmHg 84%
    23:00 +26°C° 0 mm 4 mps 720 mmHg 84%

    30 March, Saturday

    Time Temperature Precipitation Wind Pressure Humidity
    00:00 +26°C° 0 mm 4 mps 720 mmHg 84%
    01:00 +26°C° 0 mm 3 mps 719 mmHg 84%
    02:00 +26°C° 0 mm 3 mps 719 mmHg 83%
    03:00 +25°C° 0 mm 3 mps 719 mmHg 83%
    04:00 +25°C° 0 mm 3 mps 718 mmHg 83%
    05:00 +25°C° 0 mm 2 mps 719 mmHg 82%
    06:00 +25°C° 0 mm 2 mps 719 mmHg 81%
    07:00 +26°C° 0 mm 2 mps 719 mmHg 81%
    08:00 +27°C° 0 mm 2 mps 720 mmHg 75%
    09:00 +28°C° 0 mm 2 mps 720 mmHg 69%
    10:00 +29°C° 0 mm 3 mps 721 mmHg 64%
    11:00 +29°C° 0 mm 2 mps 720 mmHg 62%
    12:00 +30°C° 0 mm 2 mps 720 mmHg 60%
    13:00 +30°C° 0 mm 2 mps 719 mmHg 58%
    14:00 +30°C° 0 mm 2 mps 719 mmHg 60%
    15:00 +29°C° 0 mm 2 mps 719 mmHg 63%
    16:00 +29°C° 0 mm 2 mps 719 mmHg 66%
    17:00 +28°C° 0 mm 3 mps 719 mmHg 69%
    18:00 +27°C° 0 mm 3 mps 719 mmHg 72%
    19:00 +27°C° 0 mm 3 mps 719 mmHg 75%
    20:00 +26°C° 0 mm 3 mps 720 mmHg 75%
    21:00 +26°C° 0 mm 3 mps 720 mmHg 75%
    22:00 +26°C° 0 mm 3 mps 721 mmHg 75%
    23:00 +26°C° 0 mm 3 mps 721 mmHg 76%

    31 March, Sunday

    Time Temperature Precipitation Wind Pressure Humidity
    00:00 +26°C° 0 mm 2 mps 720 mmHg 77%
    01:00 +25°C° 0 mm 2 mps 720 mmHg 77%
    02:00 +25°C° 0 mm 2 mps 720 mmHg 78%
    03:00 +25°C° 0 mm 1 mps 720 mmHg 79%
    04:00 +25°C° 0 mm 1 mps 719 mmHg 80%
    05:00 +25°C° 0 mm 1 mps 720 mmHg 80%
    06:00 +25°C° 0 mm 1 mps 720 mmHg 80%
    07:00 +25°C° 0 mm 1 mps 720 mmHg 80%
    08:00 +27°C° 0 mm 1 mps 721 mmHg 74%
    09:00 +26°C° 0 mm 0 mps 721 mmHg 67%
    10:00 +27°C° 0 mm 0 mps 721 mmHg 60%
    11:00 +30°C° 0 mm 1 mps 721 mmHg 59%
    12:00 +30°C° 0 mm 1 mps 721 mmHg 58%
    13:00 +31°C° 0 mm 1 mps 721 mmHg 56%
    14:00 +30°C° 0.1 mm 1 mps 720 mmHg 60%
    15:00 +29°C° 0.1 mm 1 mps 720 mmHg 64%
    16:00 +28°C° 0.1 mm 1 mps 720 mmHg 67%
    17:00 +27°C° 0 mm 1 mps 721 mmHg 69%
    18:00 +27°C° 0 mm 1 mps 721 mmHg 72%
    19:00 +27°C° 0 mm 2 mps 721 mmHg 74%
    20:00 +26°C° 0 mm 2 mps 721 mmHg 75%
    21:00 +26°C° 0 mm 1 mps 722 mmHg 76%
    22:00 +26°C° 0 mm 1 mps 722 mmHg 77%
    23:00 +25°C° 0 mm 1 mps 722 mmHg 78%

    1 April, Monday

    Time Temperature Precipitation Wind Pressure Humidity
    00:00 +25°C° 0 mm 1 mps 721 mmHg 79%
    01:00 +25°C° 0 mm 1 mps 721 mmHg 80%
    02:00 +25°C° 0 mm 1 mps 721 mmHg 81%
    03:00 +25°C° 0 mm 1 mps 721 mmHg 81%
    04:00 +25°C° 0 mm 1 mps 720 mmHg 82%
    05:00 +25°C° 0 mm 1 mps 721 mmHg 81%
    06:00 +25°C° 0 mm 1 mps 721 mmHg 81%
    07:00 +25°C° 0 mm 1 mps 721 mmHg 81%
    08:00 +26°C° 0 mm 2 mps 722 mmHg 74%
    09:00 +27°C° 0 mm 2 mps 722 mmHg 68%
    10:00 +28°C° 0 mm 2 mps 722 mmHg 62%
    11:00 +29°C° 0 mm 2 mps 722 mmHg 60%
    12:00 +30°C° 0 mm 2 mps 722 mmHg 58%
    13:00 +30°C° 0 mm 2 mps 722 mmHg 55%
    14:00 +30°C° 0 mm 2 mps 721 mmHg 59%
    15:00 +29°C° 0 mm 2 mps 721 mmHg 62%
    16:00 +28°C° 0 mm 2 mps 721 mmHg 65%
    17:00 +27°C° 0 mm 2 mps 721 mmHg 68%
    18:00 +27°C° 0 mm 2 mps 722 mmHg 71%
    19:00 +26°C° 0 mm 2 mps 722 mmHg 74%
    20:00 +26°C° 0 mm 2 mps 722 mmHg 75%
    21:00 +26°C° 0 mm 2 mps 723 mmHg 76%
    22:00 +26°C° 0 mm 2 mps 723 mmHg 77%
    23:00 +26°C° 0 mm 2 mps 723 mmHg 78%
    Show more